Skip Page Navigation
NASA JPL Caltech
NASA Logo - Jet Propulsion Laboratory + View the NASA Portal
+ Center for Near-Earth Object Studies
JPL Home Earth Solar System Stars & Galaxies Technology
JPL Solar System Dynamics
BODIES ORBITS EPHEMERIDES TOOLS PHYSICAL DATA DISCOVERY FAQ SITE MAP
IMPORTANT: The SSD Announcement email list is now available. Major changes are coming in the near future, including possible hostname and/or URL changes. To be notified of such changes, subscribe to this email list.

Please visit this page for more details.


JPL Small-Body Database Browser
Search: [ help ]  
18664 Rafaelta (1998 FA43)
Classification: Main-belt Asteroid          SPK-ID: 2018664
Ephemeris | Orbit Diagram | Orbital Elements | Mission Design | Physical Parameters | Discovery Circumstances | Close-Approach Data ]

[ show orbit diagram ]
Orbital Elements at Epoch 2458600.5 (2019-Apr-27.0) TDB
Reference: JPL 20 (heliocentric ecliptic J2000)
 Element Value Uncertainty (1-sigma)   Units 
e .1224169085757131 4.1073e-08  
a 2.971564565984297 2.1832e-08 au
q 2.607794818183369 1.2515e-07 au
i 1.121548717478852 4.9319e-06 deg
node 232.409748029377 0.00022448 deg
peri 28.83354793683062 0.00022538 deg
M 332.5068010381471 1.9395e-05 deg
tp 2458743.389052888581
(2019-Sep-16.88905289)
0.00010078 TDB
period 1871.010321907714
5.12
2.0619e-05
5.645e-08
d
yr
n .1924094141997773 2.1204e-09 deg/d
Q 3.335334313785226 2.4504e-08 au
  Orbit Determination Parameters
   # obs. used (total)      770  
   data-arc span      9545 days (26.13 yr)  
   first obs. used      1993-03-21  
   last obs. used      2019-05-09  
   planetary ephem.      DE431  
   SB-pert. ephem.      SB431-N16  
   condition code      0  
   norm. resid. RMS      .59219  
   source      ORB  
   producer      Otto Matic  
   solution date      2019-May-30 02:37:27  

Additional Information
 Earth MOID = 1.59204 au 
 Jupiter MOID = 1.72466 au 
 T_jup = 3.251 
[ show covariance matrix ]

Ephemeris | Orbit Diagram | Orbital Elements | Mission Design | Physical Parameters | Discovery Circumstances | Close-Approach Data ]

Physical Parameter Table
Parameter Symbol Value Units Sigma Reference Notes
absolute magnitude H 14.9   n/a MPO347669  
diameter diameter 5.199 km 0.234 urn:nasa:pds:neowise_diameters_albedos::2.0[mainbelt] (http://adsabs.harvard.edu/abs/2011ApJ...741...68M)  
geometric albedo albedo 0.086   0.011 urn:nasa:pds:neowise_diameters_albedos::2.0[mainbelt] (http://adsabs.harvard.edu/abs/2011ApJ...741...68M)  

18664 Rafaelta           Discovered 1998 Mar. 20 by the Lincoln Laboratory Near-Earth Asteroid Research Team at Socorro.
Rafael Andres Torrech-Antonetty (b. 1988) was awarded third place in the 2003 Intel International Science and Engineering Fair for his behavioral and social sciences team project. He attends the Isidro A. Sanchez High School, Luquillo, Puerto Rico, U.S.A.
NOTE: some special characters may not display properly (any characters within {} are an attempt to place the proper accent above a character)
Reference: 20040830/MPCPages.arcLast Updated: 2004-09-06

[ show close-approach data ]
Alternate Designations
 1998 FA43 = 1993 FT73 
Ephemeris | Orbit Diagram | Orbital Elements | Mission Design | Physical Parameters | Discovery Circumstances | Close-Approach Data ]
ABOUT SSD CREDITS/AWARDS PRIVACY/COPYRIGHT GLOSSARY LINKS
FirstGov 2020-Jan-20 15:22 UT
(server date/time)  
NASA Home Page
Site Manager:   Ryan S. Park
Webmaster  Alan B. Chamberlin